Regional Weather Roundup
Issued by NWS

Home | Current Version | Previous Version | Text Only | Print | Product List | Glossary Off
Versions: 1 2 3 4 5 6 7 8 9 10 11 12 13 14 15 16 17 18 19 20 21 22 23 24 25 26 27 28 29 30 31 32 33 34 35 36 37 38 39 40 41 42 43 44 45 46 47 48 49 50

000
ASUS45 KSLC 260810
RWRUT

UTAH REGIONAL WEATHER ROUNDUP
NATIONAL WEATHER SERVICE SALT LAKE CITY UT
200 AM MDT TUE MAY 26 2015

UTZ001>011-023>025-260900-

NORTHERN UTAH

CITY           SKY/WX    TMP DP  RH WIND       PRES   REMARKS
BRIGHAM CITY   MOCLDY    53  48  85 CALM      29.98S
HILL AFB       PTCLDY    53  43  69 E12       29.98F
LOGAN          CLEAR     46  43  89 E5        29.98F
OGDEN          PTCLDY    53  45  74 S9        29.97F
PROVO AIRPORT  CLOUDY    55  45  67 SE10      30.02S
SALT LAKE CITY MOCLDY    58  45  62 SE8       29.97F
VERNAL         MOCLDY    47  42  83 W3        30.03S
WENDOVER       PTCLDY    54  45  71 CALM      29.97F
HEBER CITY     MOCLDY    43  39  87 CALM      30.04F
WEST JORDAN    MOCLDY    54  48  82 CALM      30.00F

$$

UTZ012>022-026-027-260900-

SOUTHERN/CENTRAL UTAH

CITY           SKY/WX    TMP DP  RH WIND       PRES   REMARKS
BLANDING       CLOUDY    47  45  92 N5        30.15F
BRYCE CANYON   MOCLDY    43  36  76 W7        30.14S
CEDAR CITY     CLOUDY    54  44  69 SE3       30.04R
DELTA          CLOUDY    54  48  80 NE3       30.02S
HANKSVILLE     CLEAR     55  45  67 CALM      30.00S
MILFORD        CLOUDY    54  49  83 NW9       30.01F
MOAB/CYNLANDS  CLEAR     53  41  63 CALM      29.97S
PRICE          PTCLDY    48  39  71 N7        30.04S
ST GEORGE      CLOUDY    66  43  42 NE3       29.93S
KANAB          PTCLDY    48  43  81 NE3       30.07S

$$

REGIONAL REPORTS     COLORADO/ARIZONA

CITY           SKY/WX    TMP DP  RH WIND       PRES   REMARKS
CRAIG, CO      PTCLDY    43  41  93 CALM      30.07F
GRAND JUNCTION PTCLDY    53  44  71 E5        30.02S
RIFLE          PTCLDY    47  44  90 CALM      30.08F
MONTROSE       PTCLDY    47  40  76 SE8       30.09S
CORTEZ         CLEAR     41  39  93 E5        30.09F
PAGE, AZ       CLEAR     62  44  51 CALM      29.97F
GRAND CANYON   CLEAR     38  36  92 CALM      30.14S
KINGMAN        CLEAR     66  35  31 SW10      29.98S
FLAGSTAFF      CLEAR     42  40  92 CALM      30.17S

$$

REGIONAL REPORTS    NEVADA/IDAHO/WYOMING

CITY           SKY/WX    TMP DP  RH WIND       PRES   REMARKS
LAS VEGAS, NV  PTCLDY    78  40  25 S8        29.83R
ELY            CLOUDY    49  46  90 SE8       30.08F
ELKO           PTCLDY    47  43  86 CALM      30.03S
POCATELLO, ID  PTCLDY    52  47  83 CALM      29.96F
BURLEY         PTCLDY    50  44  80 SW7       29.94F
EVANSTON, WY   PTCLDY    43  37  79 S5        30.08F
ROCK SPRINGS   PTCLDY    43  39  86 W13       30.06R
KEMMERER       CLEAR     37  36  93 NW6       30.08F WCI  33

$$



USA.gov is the U.S. government's official web portal to all federal, state and local government web resources and services.